This is the latest recevied weather packets stored in our database for station/object KC9DRE. If no packets are shown the sender has not sent any weather packets the latest 10 day(s).
| Time | Temp. | Humidity | Pressure | Rain* | Wind** | Luminosity | Snow |
|---|---|---|---|---|---|---|---|
| 1788017010 | 28.89° C | 61% | 1022.3 hPa | 0 mm | - | 643 W/m² | - |
| 1788016709 | 28.89° C | 59% | 1022.5 hPa | 0 mm | - | 629 W/m² | - |
| 1788016408 | 28.33° C | 60% | 1022.5 hPa | 0 mm | - | 616 W/m² | - |
| 1788016107 | 28.89° C | 61% | 1022.5 hPa | 0 mm | - | 602 W/m² | - |
| 1788015806 | 29.44° C | 59% | 1022.4 hPa | 0 mm | - | 587 W/m² | - |
| 1788015502 | 29.44° C | 62% | 1022.5 hPa | 0 mm | - | 573 W/m² | - |
| 1788015197 | 28.89° C | 59% | 1022.4 hPa | 0 mm | - | 557 W/m² | - |
| 1788014895 | 28.89° C | 61% | 1022.4 hPa | 0 mm | - | 545 W/m² | - |
| 1788014589 | 28.89° C | 60% | 1022.4 hPa | 0 mm | - | 529 W/m² | - |
| 1788014285 | 27.78° C | 65% | 1022.2 hPa | 0 mm | - | 504 W/m² | - |
| 1788013980 | 27.78° C | 63% | 1022.2 hPa | 0 mm | - | 499 W/m² | - |
| 1788013674 | 27.22° C | 63% | 1022.2 hPa | 0 mm | - | 487 W/m² | - |
| 1788013369 | 27.22° C | 63% | 1022 hPa | 0 mm | - | 470 W/m² | - |
| 1788013068 | 27.22° C | 64% | 1022 hPa | 0 mm | - | 456 W/m² | - |
| 1788012768 | 26.67° C | 68% | 1022.3 hPa | 0 mm | - | 440 W/m² | - |
| 1788012463 | 25.56° C | 70% | 1022 hPa | 0 mm | - | 428 W/m² | - |
| 1788012162 | 25° C | 70% | 1022.1 hPa | 0 mm | - | 404 W/m² | - |
| 1788011862 | 25° C | 69% | 1022.3 hPa | 0 mm | - | 419 W/m² | - |
| 1788011561 | 25.56° C | 71% | 1022.1 hPa | 0 mm | - | 404 W/m² | - |
| 1788011256 | 25.56° C | 70% | 1022.1 hPa | 0 mm | - | 391 W/m² | - |
| 1788010955 | 25.56° C | 70% | 1022.1 hPa | 0 mm | - | 385 W/m² | - |
| 1788010650 | 25° C | 77% | 1022.3 hPa | 0 mm | - | 369 W/m² | - |
| 1788010349 | 23.89° C | 80% | 1022.3 hPa | 0 mm | - | 351 W/m² | - |
| 1788010049 | 23.33° C | 83% | 1022.1 hPa | 0 mm | - | 333 W/m² | - |
| 1788009744 | 22.78° C | 85% | 1022.2 hPa | 0 mm | - | 331 W/m² | - |
* Rain latest hour (hover to see other rain measurements)
** Current wind speed in m/s (hover to see current wind gust speed)